Weather History for Westfield, MA

Change the Weather History Date:

Saturday, June 14, 2014

  Actual Average Record
Temperature  
Mean Temperature 66 °F -  
Max Temperature 75 °F 74 °F 89 °F (2005)
Min Temperature 57 °F 53 °F 47 °F (1974)
Cooling Degree Days 1    
Growing Degree Days 16 (Base 50)    
Moisture  
Dew Point 56 °F    
Average Humidity 74    
Maximum Humidity 93    
Minimum Humidity 44    
Precipitation  
Precipitation 0.00 in - - ()
Sea Level Pressure  
Sea Level Pressure 29.86 in    
Wind  
Wind Speed 6 mph (NNW)    
Max Wind Speed 20 mph    
Max Gust Speed 26 mph    
Visibility 9 miles    
Events      
Averages and records for this station are not official NWS values.
T = Trace of Precipitation, MM = Missing Value Source: NWS Daily Summary

Daily Weather History Graph

Daily Weather History Graph

Search for Another Location

Airport:

Trip Planner

Search our weather history database for the weather conditions in past years. The results will help you decide how hot, cold, wet, or windy it might be!

Date:

Astronomy

Jun. 14, 2014 Rise Set
Actual Time 5:14 AM EDT 8:28 PM EDT
Civil Twilight 4:39 AM EDT 9:02 PM EDT
Nautical Twilight 3:55 AM EDT 9:47 PM EDT
Astronomical Twilight 3:01 AM EDT 10:41 PM EDT
Moon 9:47 PM EDT (6/14) 6:56 AM EDT (6/14)
Length of Visible Light 16h 23m
Length of Day
15h 14m
Full, 97% of the Moon is Illuminated
Jun 14
Full
Jun 19
Last Quarter
Jun 27
New
Jul 5
First Quarter
Jul 12
Full

Hourly Weather History & Observations

Time (EDT) Temp. Dew Point Humidity Pressure Visibility Wind Dir Wind Speed Gust Speed Precip Events Conditions
12:53 AM 62.1 °F 60.1 °F 93% 29.81 in 10.0 mi North 3.5 mph - N/A   Overcast
1:09 AM 62.1 °F 60.1 °F 93% 29.81 in 10.0 mi North 6.9 mph - N/A   Overcast
1:53 AM 62.1 °F 60.1 °F 93% 29.81 in 5.0 mi North 5.8 mph - N/A   Overcast
2:25 AM 62.1 °F 60.1 °F 93% 29.80 in 5.0 mi North 4.6 mph - N/A   Overcast
2:53 AM 62.1 °F 60.1 °F 93% 29.80 in 4.0 mi North 5.8 mph - N/A   Overcast
3:15 AM 62.1 °F 60.1 °F 93% 29.80 in 2.5 mi Calm Calm - N/A   Overcast
3:28 AM 62.1 °F 60.1 °F 93% 29.80 in 3.0 mi North 3.5 mph - N/A   Overcast
3:53 AM 62.1 °F 60.1 °F 93% 29.80 in 10.0 mi Calm Calm - N/A   Overcast
4:50 AM 62.6 °F 59.0 °F 88% 29.81 in 10.0 mi Calm Calm - N/A   Mostly Cloudy
4:53 AM 62.1 °F 60.1 °F 93% 29.81 in 10.0 mi Calm Calm - N/A   Mostly Cloudy
5:53 AM 61.0 °F 59.0 °F 93% 29.82 in 10.0 mi North 4.6 mph - N/A   Overcast
6:32 AM 62.1 °F 59.0 °F 90% 29.82 in 10.0 mi Calm Calm - N/A   Overcast
6:53 AM 62.1 °F 60.1 °F 93% 29.83 in 10.0 mi Calm Calm - N/A   Overcast
7:35 AM 63.0 °F 60.1 °F 90% 29.83 in 10.0 mi Calm Calm - N/A   Mostly Cloudy
7:53 AM 63.0 °F 61.0 °F 93% 29.83 in 10.0 mi Calm Calm - N/A   Overcast
8:34 AM 66.9 °F 61.0 °F 81% 29.84 in 10.0 mi NW 4.6 mph - N/A   Scattered Clouds
8:53 AM 68.0 °F 60.1 °F 76% 29.84 in 10.0 mi NW 9.2 mph - N/A   Scattered Clouds
9:10 AM 69.1 °F 60.1 °F 73% 29.85 in 10.0 mi NNW 9.2 mph - N/A   Mostly Cloudy
9:27 AM 69.1 °F 59.0 °F 70% 29.84 in 10.0 mi NNW 12.7 mph - N/A   Scattered Clouds
9:51 AM 69.8 °F 57.2 °F 64% 29.85 in 10.0 mi NNW 12.7 mph - N/A   Mostly Cloudy
9:53 AM 69.1 °F 57.9 °F 68% 29.85 in 10.0 mi NNW 12.7 mph - N/A   Mostly Cloudy
10:53 AM 72.0 °F 57.0 °F 59% 29.87 in 10.0 mi WNW 11.5 mph - N/A   Overcast
11:13 AM 70.0 °F 55.9 °F 61% 29.87 in 10.0 mi NW 16.1 mph - N/A   Overcast
11:53 AM 71.1 °F 55.0 °F 57% 29.87 in 10.0 mi NNW 9.2 mph - N/A   Mostly Cloudy
12:53 PM 73.0 °F 54.0 °F 51% 29.86 in 10.0 mi NNW 10.4 mph - N/A   Clear
1:53 PM 75.0 °F 53.1 °F 46% 29.85 in 10.0 mi NW 13.8 mph - N/A   Mostly Cloudy
2:53 PM 75.0 °F 52.0 °F 44% 29.86 in 10.0 mi NW 15.0 mph 23.0 mph N/A   Mostly Cloudy
3:53 PM 72.0 °F 50.0 °F 46% 29.88 in 10.0 mi West 16.1 mph - N/A   Clear
4:53 PM 71.1 °F 48.9 °F 45% 29.90 in 10.0 mi NW 15.0 mph 21.9 mph N/A   Clear
5:53 PM 66.0 °F 46.0 °F 48% 29.92 in 10.0 mi NW 19.6 mph 26.5 mph N/A   Clear
6:53 PM 64.0 °F 46.0 °F 52% 29.94 in 10.0 mi WNW 17.3 mph 24.2 mph N/A   Clear
7:53 PM 62.1 °F 46.9 °F 58% 29.95 in 10.0 mi WNW 10.4 mph - N/A   Clear
8:53 PM 60.1 °F 46.9 °F 62% 29.94 in 10.0 mi Variable 4.6 mph - N/A   Clear
9:53 PM 59.0 °F 48.0 °F 67% 29.96 in 10.0 mi NNW 5.8 mph - N/A   Clear
10:53 PM 57.9 °F 48.0 °F 70% 29.96 in 10.0 mi North 11.5 mph - N/A   Clear
11:53 PM 57.9 °F 48.9 °F 72% 29.97 in 10.0 mi North 10.4 mph - N/A   Clear